owner,sensor,date,latitude,longitude,vertical_datum,direction_of_sea_water_velocity,sea_water_speed,upward_sea_water_velocity,qcFlag 
TABS,ioos:station:wmo:42050:1,2006-11-01T00:00:00Z,28.8425,-94.2433,2.0,268.8057372,33.59729305,-99999.0,'11111222,11111222,99999999' 
TABS,ioos:station:wmo:42050:1,2006-11-01T00:30:00Z,28.8425,-94.2433,2.0,274.9579563,34.59943641,-99999.0,'11111222,11111222,99999999' 
TABS,ioos:station:wmo:42050:1,2006-11-01T01:00:00Z,28.8425,-94.2433,2.0,276.8384043,38.13123654,-99999.0,'11111222,11111222,99999999' 
TABS,ioos:station:wmo:42050:1,2006-11-01T01:30:00Z,28.8425,-94.2433,2.0,284.5977953,27.73527898,-99999.0,'11111222,11111222,99999999' 
TABS,ioos:station:wmo:42050:1,2006-11-01T02:00:00Z,28.8425,-94.2433,2.0,279.2642104,39.38365778,-99999.0,'11111222,11111222,99999999' 
TABS,ioos:station:wmo:42050:1,2006-11-01T02:30:00Z,28.8425,-94.2433,2.0,289.9685913,36.16410651,-99999.0,'11111222,11111222,99999999' 
TABS,ioos:station:wmo:42050:1,2006-11-01T03:00:00Z,28.8425,-94.2433,2.0,287.5287694,40.77318727,-99999.0,'11111222,11111222,99999999' 
TABS,ioos:station:wmo:42050:1,2006-11-01T03:30:00Z,28.8425,-94.2433,2.0,292.5293407,36.85235406,-99999.0,'11111222,11111222,99999999' 
TABS,ioos:station:wmo:42050:1,2006-11-01T04:00:00Z,28.8425,-94.2433,2.0,293.8283183,35.02547787,-99999.0,'11111222,11111222,99999999' 
TABS,ioos:station:wmo:42050:1,2006-11-01T04:30:00Z,28.8425,-94.2433,2.0,294.106105,35.33111094,-99999.0,'11111222,11111222,99999999' 
TABS,ioos:station:wmo:42050:1,2006-11-01T05:00:00Z,28.8425,-94.2433,2.0,297.3754487,31.31702572,-99999.0,'11111222,11111222,99999999' 
TABS,ioos:station:wmo:42050:1,2006-11-01T05:30:00Z,28.8425,-94.2433,2.0,309.6896751,26.51009053,-99999.0,'11111222,11111222,99999999' 
TABS,ioos:station:wmo:42050:1,2006-11-01T06:00:00Z,28.8425,-94.2433,2.0,359.132161,12.54143931,-99999.0,'11111222,11144222,99999999' 
TABS,ioos:station:wmo:42050:1,2006-11-01T06:30:00Z,28.8425,-94.2433,2.0,62.15965525,14.66776738,-99999.0,'11111222,11111222,99999999' 
TABS,ioos:station:wmo:42050:1,2006-11-01T07:00:00Z,28.8425,-94.2433,2.0,78.10522611,9.606268787,-99999.0,'11133222,11111222,99999999' 
TABS,ioos:station:wmo:42050:1,2006-11-01T07:30:00Z,28.8425,-94.2433,2.0,133.1938737,9.423343356,-99999.0,'11133222,11111222,99999999' 
TABS,ioos:station:wmo:42050:1,2006-11-01T08:00:00Z,28.8425,-94.2433,2.0,138.0576533,6.627955944,-99999.0,'11133222,11111222,99999999' 
TABS,ioos:station:wmo:42050:1,2006-11-01T08:30:00Z,28.8425,-94.2433,2.0,187.6873204,12.63354661,-99999.0,'11111222,11111222,99999999' 
TABS,ioos:station:wmo:42050:1,2006-11-01T09:00:00Z,28.8425,-94.2433,2.0,238.0167058,35.19193231,-99999.0,'11111222,11111222,99999999' 
TABS,ioos:station:wmo:42050:1,2006-11-01T09:30:00Z,28.8425,-94.2433,2.0,234.2867791,39.91613834,-99999.0,'11111222,11111222,99999999' 
TABS,ioos:station:wmo:42050:1,2006-11-01T10:00:00Z,28.8425,-94.2433,2.0,235.5804124,39.66427612,-99999.0,'11111222,11111222,99999999' 
TABS,ioos:station:wmo:42050:1,2006-11-01T10:30:00Z,28.8425,-94.2433,2.0,235.5142138,38.36121479,-99999.0,'11111222,11111222,99999999' 
TABS,ioos:station:wmo:42050:1,2006-11-01T11:00:00Z,28.8425,-94.2433,2.0,240.8923357,38.01031702,-99999.0,'11111222,11111222,99999999' 
TABS,ioos:station:wmo:42050:1,2006-11-01T11:30:00Z,28.8425,-94.2433,2.0,245.5680164,42.28652386,-99999.0,'11111222,11111222,99999999' 
TABS,ioos:station:wmo:42050:1,2006-11-01T12:00:00Z,28.8425,-94.2433,2.0,244.4848479,38.30580765,-99999.0,'11111222,11111222,99999999' 
TABS,ioos:station:wmo:42050:1,2006-11-01T12:30:00Z,28.8425,-94.2433,2.0,242.1721744,37.55269631,-99999.0,'11111222,11111222,99999999' 
TABS,ioos:station:wmo:42050:1,2006-11-01T13:00:00Z,28.8425,-94.2433,2.0,242.2293368,34.01812017,-99999.0,'11111222,11111222,99999999' 
TABS,ioos:station:wmo:42050:1,2006-11-01T13:30:00Z,28.8425,-94.2433,2.0,245.4545397,38.44400864,-99999.0,'11111222,11111222,99999999' 
TABS,ioos:station:wmo:42050:1,2006-11-01T14:00:00Z,28.8425,-94.2433,2.0,246.322283,36.92859732,-99999.0,'11111222,11111222,99999999' 
TABS,ioos:station:wmo:42050:1,2006-11-01T14:30:00Z,28.8425,-94.2433,2.0,240.7195258,35.78147705,-99999.0,'11111222,11111222,99999999' 
TABS,ioos:station:wmo:42050:1,2006-11-01T15:00:00Z,28.8425,-94.2433,2.0,239.8872583,36.93458271,-99999.0,'11111222,11111222,99999999' 
TABS,ioos:station:wmo:42050:1,2006-11-01T15:30:00Z,28.8425,-94.2433,2.0,242.0711976,34.39599105,-99999.0,'11111222,11111222,99999999' 
TABS,ioos:station:wmo:42050:1,2006-11-01T16:00:00Z,28.8425,-94.2433,2.0,233.6716492,45.67804287,-99999.0,'11111222,11111222,99999999' 
TABS,ioos:station:wmo:42050:1,2006-11-01T16:30:00Z,28.8425,-94.2433,2.0,232.4220478,38.69895218,-99999.0,'11111222,11111222,99999999' 
TABS,ioos:station:wmo:42050:1,2006-11-01T17:00:00Z,28.8425,-94.2433,2.0,233.8574887,38.89513723,-99999.0,'11111222,11111222,99999999' 
TABS,ioos:station:wmo:42050:1,2006-11-01T17:30:00Z,28.8425,-94.2433,2.0,226.9187757,38.00709407,-99999.0,'11111222,11111222,99999999' 
TABS,ioos:station:wmo:42050:1,2006-11-01T18:00:00Z,28.8425,-94.2433,2.0,224.0171112,40.41002351,-99999.0,'11111222,11111222,99999999' 
TABS,ioos:station:wmo:42050:1,2006-11-01T18:30:00Z,28.8425,-94.2433,2.0,222.5286376,47.5618019,-99999.0,'11111222,11111222,99999999' 
TABS,ioos:station:wmo:42050:1,2006-11-01T19:00:00Z,28.8425,-94.2433,2.0,222.4852018,46.57954594,-99999.0,'11111222,11111222,99999999' 
TABS,ioos:station:wmo:42050:1,2006-11-01T19:30:00Z,28.8425,-94.2433,2.0,225.5381774,47.39946097,-99999.0,'11111222,11111222,99999999' 
TABS,ioos:station:wmo:42050:1,2006-11-01T20:00:00Z,28.8425,-94.2433,2.0,221.1247403,46.03890529,-99999.0,'11111222,11111222,99999999' 
TABS,ioos:station:wmo:42050:1,2006-11-01T20:30:00Z,28.8425,-94.2433,2.0,221.7037663,44.5223764,-99999.0,'11111222,11111222,99999999' 
TABS,ioos:station:wmo:42050:1,2006-11-01T21:00:00Z,28.8425,-94.2433,2.0,223.7189347,44.29009144,-99999.0,'11111222,11111222,99999999' 
TABS,ioos:station:wmo:42050:1,2006-11-01T21:30:00Z,28.8425,-94.2433,2.0,222.6715634,42.29868674,-99999.0,'11111222,11111222,99999999' 
TABS,ioos:station:wmo:42050:1,2006-11-01T22:00:00Z,28.8425,-94.2433,2.0,224.7299941,43.5653314,-99999.0,'11111222,11111222,99999999' 
TABS,ioos:station:wmo:42050:1,2006-11-01T22:30:00Z,28.8425,-94.2433,2.0,229.3065875,42.65292135,-99999.0,'11111222,11111222,99999999' 
TABS,ioos:station:wmo:42050:1,2006-11-01T23:00:00Z,28.8425,-94.2433,2.0,237.7957092,43.73895518,-99999.0,'11111222,11111222,99999999' 
TABS,ioos:station:wmo:42050:1,2006-11-01T23:30:00Z,28.8425,-94.2433,2.0,241.7886526,40.63717756,-99999.0,'11111222,11111222,99999999' 
TABS,ioos:station:wmo:42050:1,2006-11-02T00:00:00Z,28.8425,-94.2433,2.0,246.0076262,45.32607417,-99999.0,'11111222,11111222,99999999' 
TABS,ioos:station:wmo:42050:1,2006-11-02T00:30:00Z,28.8425,-94.2433,2.0,252.9566301,50.76953811,-99999.0,'11111222,11111222,99999999' 
TABS,ioos:station:wmo:42050:1,2006-11-02T01:00:00Z,28.8425,-94.2433,2.0,262.2677214,48.83397383,-99999.0,'11111222,11111222,99999999' 
TABS,ioos:station:wmo:42050:1,2006-11-02T01:30:00Z,28.8425,-94.2433,2.0,260.2259696,46.59629277,-99999.0,'11111222,11111222,99999999' 
TABS,ioos:station:wmo:42050:1,2006-11-02T02:00:00Z,28.8425,-94.2433,2.0,262.3744566,47.17716821,-99999.0,'11111222,11111222,99999999' 
TABS,ioos:station:wmo:42050:1,2006-11-02T02:30:00Z,28.8425,-94.2433,2.0,269.6252662,45.92097995,-99999.0,'11111222,11111222,99999999' 
TABS,ioos:station:wmo:42050:1,2006-11-02T03:00:00Z,28.8425,-94.2433,2.0,267.6972074,42.81456294,-99999.0,'11111222,11111222,99999999' 
TABS,ioos:station:wmo:42050:1,2006-11-02T03:30:00Z,28.8425,-94.2433,2.0,263.51371,46.03463479,-99999.0,'11111222,11111222,99999999' 
TABS,ioos:station:wmo:42050:1,2006-11-02T04:00:00Z,28.8425,-94.2433,2.0,266.9758434,43.98123236,-99999.0,'11111222,11111222,99999999' 
TABS,ioos:station:wmo:42050:1,2006-11-02T04:30:00Z,28.8425,-94.2433,2.0,262.1155046,45.78275767,-99999.0,'11111222,11111222,99999999' 
TABS,ioos:station:wmo:42050:1,2006-11-02T05:00:00Z,28.8425,-94.2433,2.0,262.0984636,47.0668174,-99999.0,'11111222,11111222,99999999' 
TABS,ioos:station:wmo:42050:1,2006-11-02T05:30:00Z,28.8425,-94.2433,2.0,259.8892416,53.49063189,-99999.0,'11111222,11111222,99999999' 
TABS,ioos:station:wmo:42050:1,2006-11-02T06:00:00Z,28.8425,-94.2433,2.0,260.2897642,53.65868616,-99999.0,'11111222,11111222,99999999' 
TABS,ioos:station:wmo:42050:1,2006-11-02T06:30:00Z,28.8425,-94.2433,2.0,259.0317325,52.56006088,-99999.0,'11111222,11111222,99999999' 
TABS,ioos:station:wmo:42050:1,2006-11-02T07:00:00Z,28.8425,-94.2433,2.0,261.15624,48.85072159,-99999.0,'11111222,11111222,99999999' 
TABS,ioos:station:wmo:42050:1,2006-11-02T07:30:00Z,28.8425,-94.2433,2.0,261.5782666,48.41198405,-99999.0,'11111222,11111222,99999999' 
TABS,ioos:station:wmo:42050:1,2006-11-02T08:00:00Z,28.8425,-94.2433,2.0,260.8752703,51.83590262,-99999.0,'11111222,11111222,99999999' 
TABS,ioos:station:wmo:42050:1,2006-11-02T08:30:00Z,28.8425,-94.2433,2.0,257.7101392,53.2297755,-99999.0,'11111222,11111222,99999999' 
TABS,ioos:station:wmo:42050:1,2006-11-02T09:00:00Z,28.8425,-94.2433,2.0,259.7891803,47.21776996,-99999.0,'11111222,11111222,99999999' 
TABS,ioos:station:wmo:42050:1,2006-11-02T09:30:00Z,28.8425,-94.2433,2.0,255.3777719,49.83397235,-99999.0,'11111222,11111222,99999999' 
TABS,ioos:station:wmo:42050:1,2006-11-02T10:00:00Z,28.8425,-94.2433,2.0,255.1790028,49.96216969,-99999.0,'11111222,11111222,99999999' 
TABS,ioos:station:wmo:42050:1,2006-11-02T10:30:00Z,28.8425,-94.2433,2.0,254.9299058,52.30889121,-99999.0,'11111222,11111222,99999999' 
TABS,ioos:station:wmo:42050:1,2006-11-02T11:00:00Z,28.8425,-94.2433,2.0,254.912778,49.86885702,-99999.0,'11111222,11111222,99999999' 
TABS,ioos:station:wmo:42050:1,2006-11-02T11:30:00Z,28.8425,-94.2433,2.0,253.7082384,50.72680751,-99999.0,'11111222,11111222,99999999' 
TABS,ioos:station:wmo:42050:1,2006-11-02T12:00:00Z,28.8425,-94.2433,2.0,254.3841809,41.97945807,-99999.0,'11111222,11111222,99999999' 
TABS,ioos:station:wmo:42050:1,2006-11-02T12:30:00Z,28.8425,-94.2433,2.0,253.6224858,44.29729224,-99999.0,'11111222,11111222,99999999' 
TABS,ioos:station:wmo:42050:1,2006-11-02T13:00:00Z,28.8425,-94.2433,2.0,256.5540243,39.99624982,-99999.0,'11111222,11111222,99999999' 
TABS,ioos:station:wmo:42050:1,2006-11-02T13:30:00Z,28.8425,-94.2433,2.0,259.2979306,41.19651563,-99999.0,'11111222,11111222,99999999' 
TABS,ioos:station:wmo:42050:1,2006-11-02T14:00:00Z,28.8425,-94.2433,2.0,258.9563119,34.97769146,-99999.0,'11111222,11111222,99999999' 
TABS,ioos:station:wmo:42050:1,2006-11-02T14:30:00Z,28.8425,-94.2433,2.0,263.393904,35.03256913,-99999.0,'11111222,11111222,99999999' 
TABS,ioos:station:wmo:42050:1,2006-11-02T15:00:00Z,28.8425,-94.2433,2.0,262.4402867,33.21869654,-99999.0,'11111222,11111222,99999999' 
TABS,ioos:station:wmo:42050:1,2006-11-02T15:30:00Z,28.8425,-94.2433,2.0,263.541847,30.14124417,-99999.0,'11111222,11111222,99999999' 
TABS,ioos:station:wmo:42050:1,2006-11-02T16:00:00Z,28.8425,-94.2433,2.0,268.8632208,29.24575183,-99999.0,'11111222,11111222,99999999' 
TABS,ioos:station:wmo:42050:1,2006-11-02T16:30:00Z,28.8425,-94.2433,2.0,272.8063894,28.39404339,-99999.0,'11111222,11111222,99999999' 
TABS,ioos:station:wmo:42050:1,2006-11-02T17:00:00Z,28.8425,-94.2433,2.0,274.3799407,27.50029818,-99999.0,'11111222,11111222,99999999' 
TABS,ioos:station:wmo:42050:1,2006-11-02T17:30:00Z,28.8425,-94.2433,2.0,266.8329837,26.43035565,-99999.0,'11111222,11111222,99999999' 
TABS,ioos:station:wmo:42050:1,2006-11-02T18:00:00Z,28.8425,-94.2433,2.0,262.1453587,21.14839474,-99999.0,'11111222,11111222,99999999' 
TABS,ioos:station:wmo:42050:1,2006-11-02T18:30:00Z,28.8425,-94.2433,2.0,263.6274826,19.82246201,-99999.0,'11111222,11111222,99999999' 
TABS,ioos:station:wmo:42050:1,2006-11-02T19:00:00Z,28.8425,-94.2433,2.0,247.8978458,19.48156565,-99999.0,'11111222,11111222,99999999' 
TABS,ioos:station:wmo:42050:1,2006-11-02T19:30:00Z,28.8425,-94.2433,2.0,241.618808,14.53726934,-99999.0,'11111222,11111222,99999999' 
TABS,ioos:station:wmo:42050:1,2006-11-02T20:00:00Z,28.8425,-94.2433,2.0,241.1289442,21.7879967,-99999.0,'11111222,11111222,99999999' 
TABS,ioos:station:wmo:42050:1,2006-11-02T20:30:00Z,28.8425,-94.2433,2.0,238.7187845,17.35249262,-99999.0,'11111222,11111222,99999999' 
TABS,ioos:station:wmo:42050:1,2006-11-02T21:00:00Z,28.8425,-94.2433,2.0,228.9408374,20.78151583,-99999.0,'11111222,11111222,99999999' 
TABS,ioos:station:wmo:42050:1,2006-11-02T21:30:00Z,28.8425,-94.2433,2.0,225.7584158,25.09742019,-99999.0,'11111222,11111222,99999999' 
TABS,ioos:station:wmo:42050:1,2006-11-02T22:00:00Z,28.8425,-94.2433,2.0,241.7716771,19.72595498,-99999.0,'11111222,11111222,99999999' 
TABS,ioos:station:wmo:42050:1,2006-11-02T22:30:00Z,28.8425,-94.2433,2.0,225.9692752,19.22191458,-99999.0,'11111222,11111222,99999999' 
TABS,ioos:station:wmo:42050:1,2006-11-02T23:00:00Z,28.8425,-94.2433,2.0,232.4817297,20.68932333,-99999.0,'11111222,11111222,99999999' 
TABS,ioos:station:wmo:42050:1,2006-11-02T23:30:00Z,28.8425,-94.2433,2.0,237.4599507,17.95926502,-99999.0,'11111222,11111222,99999999' 
TABS,ioos:station:wmo:42050:1,2006-11-03T00:00:00Z,28.8425,-94.2433,2.0,240.9066826,18.85946182,-99999.0,'11111222,11111222,99999999' 
TABS,ioos:station:wmo:42050:1,2006-11-03T00:30:00Z,28.8425,-94.2433,2.0,235.5274458,18.69236475,-99999.0,'11111222,11111222,99999999' 
TABS,ioos:station:wmo:42050:1,2006-11-03T01:00:00Z,28.8425,-94.2433,2.0,239.4699446,20.37461656,-99999.0,'11111222,11111222,99999999' 
TABS,ioos:station:wmo:42050:1,2006-11-03T01:30:00Z,28.8425,-94.2433,2.0,253.3614227,20.67564993,-99999.0,'11111222,11111222,99999999' 
TABS,ioos:station:wmo:42050:1,2006-11-03T02:00:00Z,28.8425,-94.2433,2.0,249.8155102,18.75155727,-99999.0,'11111222,11111222,99999999' 
TABS,ioos:station:wmo:42050:1,2006-11-03T02:30:00Z,28.8425,-94.2433,2.0,256.1275585,20.312442,-99999.0,'11111222,11111222,99999999' 
TABS,ioos:station:wmo:42050:1,2006-11-03T03:00:00Z,28.8425,-94.2433,2.0,266.8020288,21.51349344,-99999.0,'11111222,11111222,99999999' 
TABS,ioos:station:wmo:42050:1,2006-11-03T03:30:00Z,28.8425,-94.2433,2.0,260.4136686,22.0985633,-99999.0,'11111222,11111222,99999999' 
TABS,ioos:station:wmo:42050:1,2006-11-03T04:00:00Z,28.8425,-94.2433,2.0,264.0258468,22.96470553,-99999.0,'11111222,11111222,99999999' 
TABS,ioos:station:wmo:42050:1,2006-11-03T04:30:00Z,28.8425,-94.2433,2.0,269.6389504,25.42050354,-99999.0,'11111222,11111222,99999999' 
TABS,ioos:station:wmo:42050:1,2006-11-03T05:00:00Z,28.8425,-94.2433,2.0,262.447126,22.44470984,-99999.0,'11111222,11111222,99999999' 
TABS,ioos:station:wmo:42050:1,2006-11-03T05:30:00Z,28.8425,-94.2433,2.0,254.7854508,24.54008965,-99999.0,'11111222,11111222,99999999' 
TABS,ioos:station:wmo:42050:1,2006-11-03T06:00:00Z,28.8425,-94.2433,2.0,262.9776555,24.13099666,-99999.0,'11111222,11111222,99999999' 
TABS,ioos:station:wmo:42050:1,2006-11-03T06:30:00Z,28.8425,-94.2433,2.0,257.0304899,25.26446714,-99999.0,'11111222,11111222,99999999' 
TABS,ioos:station:wmo:42050:1,2006-11-03T07:00:00Z,28.8425,-94.2433,2.0,253.9799418,26.48863341,-99999.0,'11111222,11111222,99999999' 
TABS,ioos:station:wmo:42050:1,2006-11-03T07:30:00Z,28.8425,-94.2433,2.0,255.5947393,30.91180519,-99999.0,'11111222,11111222,99999999' 
TABS,ioos:station:wmo:42050:1,2006-11-03T08:00:00Z,28.8425,-94.2433,2.0,243.3336435,30.45976527,-99999.0,'11111222,11111222,99999999' 
TABS,ioos:station:wmo:42050:1,2006-11-03T08:30:00Z,28.8425,-94.2433,2.0,245.023306,26.45390897,-99999.0,'11111222,11111222,99999999' 
TABS,ioos:station:wmo:42050:1,2006-11-03T09:00:00Z,28.8425,-94.2433,2.0,235.1214926,30.09618248,-99999.0,'11111222,11111222,99999999' 
TABS,ioos:station:wmo:42050:1,2006-11-03T09:30:00Z,28.8425,-94.2433,2.0,237.2604298,34.42943508,-99999.0,'11111222,11111222,99999999' 
TABS,ioos:station:wmo:42050:1,2006-11-03T10:00:00Z,28.8425,-94.2433,2.0,243.7352941,34.93680724,-99999.0,'11111222,11111222,99999999' 
TABS,ioos:station:wmo:42050:1,2006-11-03T10:30:00Z,28.8425,-94.2433,2.0,243.1872129,37.28901715,-99999.0,'11111222,11111222,99999999' 
TABS,ioos:station:wmo:42050:1,2006-11-03T11:00:00Z,28.8425,-94.2433,2.0,241.1923165,36.23415654,-99999.0,'11111222,11111222,99999999' 
TABS,ioos:station:wmo:42050:1,2006-11-03T11:30:00Z,28.8425,-94.2433,2.0,248.9887493,32.43663515,-99999.0,'11111222,11111222,99999999' 
TABS,ioos:station:wmo:42050:1,2006-11-03T12:00:00Z,28.8425,-94.2433,2.0,244.8032216,32.3919774,-99999.0,'11111222,11111222,99999999' 
TABS,ioos:station:wmo:42050:1,2006-11-03T12:30:00Z,28.8425,-94.2433,2.0,251.8817316,27.43001641,-99999.0,'11111222,11111222,99999999' 
TABS,ioos:station:wmo:42050:1,2006-11-03T13:00:00Z,28.8425,-94.2433,2.0,260.9828792,31.07399234,-99999.0,'11111222,11111222,99999999' 
TABS,ioos:station:wmo:42050:1,2006-11-03T13:30:00Z,28.8425,-94.2433,2.0,258.7759486,26.0481746,-99999.0,'11111222,11111222,99999999' 
TABS,ioos:station:wmo:42050:1,2006-11-03T14:00:00Z,28.8425,-94.2433,2.0,269.4235402,25.861307,-99999.0,'11111222,11111222,99999999' 
TABS,ioos:station:wmo:42050:1,2006-11-03T14:30:00Z,28.8425,-94.2433,2.0,272.5974078,28.02878699,-99999.0,'11111222,11111222,99999999' 
TABS,ioos:station:wmo:42050:1,2006-11-03T15:00:00Z,28.8425,-94.2433,2.0,279.062493,27.30076189,-99999.0,'11111222,11111222,99999999' 
TABS,ioos:station:wmo:42050:1,2006-11-03T15:30:00Z,28.8425,-94.2433,2.0,279.2302856,25.12530398,-99999.0,'11111222,11111222,99999999' 
TABS,ioos:station:wmo:42050:1,2006-11-03T16:00:00Z,28.8425,-94.2433,2.0,280.3869505,24.46081969,-99999.0,'11111222,11111222,99999999' 
TABS,ioos:station:wmo:42050:1,2006-11-03T16:30:00Z,28.8425,-94.2433,2.0,288.10365,21.30462156,-99999.0,'11111222,11111222,99999999' 
TABS,ioos:station:wmo:42050:1,2006-11-03T17:00:00Z,28.8425,-94.2433,2.0,283.9493623,20.70043961,-99999.0,'11111222,11111222,99999999' 
TABS,ioos:station:wmo:42050:1,2006-11-03T17:30:00Z,28.8425,-94.2433,2.0,279.3946046,19.35963843,-99999.0,'11111222,11111222,99999999' 
TABS,ioos:station:wmo:42050:1,2006-11-03T18:00:00Z,28.8425,-94.2433,2.0,268.9573976,18.69309231,-99999.0,'11111222,11111222,99999999' 
TABS,ioos:station:wmo:42050:1,2006-11-03T18:30:00Z,28.8425,-94.2433,2.0,273.9269811,16.93976387,-99999.0,'11111222,11111222,99999999' 
TABS,ioos:station:wmo:42050:1,2006-11-03T19:00:00Z,28.8425,-94.2433,2.0,275.3902912,18.84331446,-99999.0,'11111222,11111222,99999999' 
TABS,ioos:station:wmo:42050:1,2006-11-03T19:30:00Z,28.8425,-94.2433,2.0,260.2150807,18.41790976,-99999.0,'11111222,11111222,99999999' 
TABS,ioos:station:wmo:42050:1,2006-11-03T20:00:00Z,28.8425,-94.2433,2.0,262.8064565,16.69136603,-99999.0,'11111222,11111222,99999999' 
TABS,ioos:station:wmo:42050:1,2006-11-03T20:30:00Z,28.8425,-94.2433,2.0,252.8527844,18.14657268,-99999.0,'11111222,11111222,99999999' 
TABS,ioos:station:wmo:42050:1,2006-11-03T21:00:00Z,28.8425,-94.2433,2.0,249.8502733,20.61146526,-99999.0,'11111222,11111222,99999999' 
TABS,ioos:station:wmo:42050:1,2006-11-03T21:30:00Z,28.8425,-94.2433,2.0,241.2314401,17.68248003,-99999.0,'11111222,11111222,99999999' 
TABS,ioos:station:wmo:42050:1,2006-11-03T22:00:00Z,28.8425,-94.2433,2.0,251.1303246,22.94298368,-99999.0,'11111222,11111222,99999999' 
TABS,ioos:station:wmo:42050:1,2006-11-03T22:30:00Z,28.8425,-94.2433,2.0,242.623268,20.52916218,-99999.0,'11111222,11111222,99999999' 
TABS,ioos:station:wmo:42050:1,2006-11-03T23:00:00Z,28.8425,-94.2433,2.0,250.9621049,21.95058314,-99999.0,'11111222,11111222,99999999' 
TABS,ioos:station:wmo:42050:1,2006-11-03T23:30:00Z,28.8425,-94.2433,2.0,250.4024528,22.45046547,-99999.0,'11111222,11111222,99999999' 
TABS,ioos:station:wmo:42050:1,2006-11-04T00:00:00Z,28.8425,-94.2433,2.0,257.0811318,23.12532162,-99999.0,'11111222,11111222,99999999' 
TABS,ioos:station:wmo:42050:1,2006-11-04T00:30:00Z,28.8425,-94.2433,2.0,255.8461996,21.34803035,-99999.0,'11111222,11111222,99999999' 
TABS,ioos:station:wmo:42050:1,2006-11-04T01:00:00Z,28.8425,-94.2433,2.0,268.5753951,21.72671167,-99999.0,'11111222,11111222,99999999' 
TABS,ioos:station:wmo:42050:1,2006-11-04T01:30:00Z,28.8425,-94.2433,2.0,265.2583639,23.34989936,-99999.0,'11111222,11111222,99999999' 
TABS,ioos:station:wmo:42050:1,2006-11-04T02:00:00Z,28.8425,-94.2433,2.0,270.3094816,24.10035062,-99999.0,'11111222,11111222,99999999' 
TABS,ioos:station:wmo:42050:1,2006-11-04T02:30:00Z,28.8425,-94.2433,2.0,276.9888943,23.42402613,-99999.0,'11111222,11111222,99999999' 
TABS,ioos:station:wmo:42050:1,2006-11-04T03:00:00Z,28.8425,-94.2433,2.0,268.3637473,22.06899409,-99999.0,'11111222,11111222,99999999' 
TABS,ioos:station:wmo:42050:1,2006-11-04T03:30:00Z,28.8425,-94.2433,2.0,281.2613479,22.94167387,-99999.0,'11111222,11111222,99999999' 
TABS,ioos:station:wmo:42050:1,2006-11-04T04:00:00Z,28.8425,-94.2433,2.0,278.4749629,21.17115963,-99999.0,'11111222,11111222,99999999' 
TABS,ioos:station:wmo:42050:1,2006-11-04T04:30:00Z,28.8425,-94.2433,2.0,277.4060264,22.0337945,-99999.0,'11111222,11111222,99999999' 
TABS,ioos:station:wmo:42050:1,2006-11-04T05:00:00Z,28.8425,-94.2433,2.0,262.0989274,19.42437901,-99999.0,'11111222,11111222,99999999' 
TABS,ioos:station:wmo:42050:1,2006-11-04T05:30:00Z,28.8425,-94.2433,2.0,273.2660856,20.36306706,-99999.0,'11111222,11111222,99999999' 
TABS,ioos:station:wmo:42050:1,2006-11-04T06:00:00Z,28.8425,-94.2433,2.0,276.035574,21.78071854,-99999.0,'11111222,11111222,99999999' 
TABS,ioos:station:wmo:42050:1,2006-11-04T06:30:00Z,28.8425,-94.2433,2.0,265.1757143,22.11834533,-99999.0,'11111222,11111222,99999999' 
TABS,ioos:station:wmo:42050:1,2006-11-04T07:00:00Z,28.8425,-94.2433,2.0,253.0967325,21.28973931,-99999.0,'11111222,11111222,99999999' 
TABS,ioos:station:wmo:42050:1,2006-11-04T07:30:00Z,28.8425,-94.2433,2.0,254.969433,20.55313601,-99999.0,'11111222,11111222,99999999' 
TABS,ioos:station:wmo:42050:1,2006-11-04T08:00:00Z,28.8425,-94.2433,2.0,255.7319656,21.01830869,-99999.0,'11111222,11111222,99999999' 
TABS,ioos:station:wmo:42050:1,2006-11-04T08:30:00Z,28.8425,-94.2433,2.0,250.7727626,23.10897012,-99999.0,'11111222,11111222,99999999' 
TABS,ioos:station:wmo:42050:1,2006-11-04T09:00:00Z,28.8425,-94.2433,2.0,254.6147169,25.55578212,-99999.0,'11111222,11111222,99999999' 
TABS,ioos:station:wmo:42050:1,2006-11-04T09:30:00Z,28.8425,-94.2433,2.0,243.7552713,26.36812659,-99999.0,'11111222,11111222,99999999' 
TABS,ioos:station:wmo:42050:1,2006-11-04T10:00:00Z,28.8425,-94.2433,2.0,246.8649532,28.25190967,-99999.0,'11111222,11111222,99999999' 
TABS,ioos:station:wmo:42050:1,2006-11-04T10:30:00Z,28.8425,-94.2433,2.0,247.9024409,28.41733626,-99999.0,'11111222,11111222,99999999' 
TABS,ioos:station:wmo:42050:1,2006-11-04T11:00:00Z,28.8425,-94.2433,2.0,249.6764898,30.2319781,-99999.0,'11111222,11111222,99999999' 
TABS,ioos:station:wmo:42050:1,2006-11-04T11:30:00Z,28.8425,-94.2433,2.0,250.6171903,33.65756081,-99999.0,'11111222,11111222,99999999' 
TABS,ioos:station:wmo:42050:1,2006-11-04T12:00:00Z,28.8425,-94.2433,2.0,254.279588,31.7786123,-99999.0,'11111222,11111222,99999999' 
TABS,ioos:station:wmo:42050:1,2006-11-04T12:30:00Z,28.8425,-94.2433,2.0,259.9374997,25.75615655,-99999.0,'11111222,11111222,99999999' 
TABS,ioos:station:wmo:42050:1,2006-11-04T13:00:00Z,28.8425,-94.2433,2.0,258.2017163,27.63376558,-99999.0,'11111222,11111222,99999999' 
TABS,ioos:station:wmo:42050:1,2006-11-04T13:30:00Z,28.8425,-94.2433,2.0,270.374761,27.55058802,-99999.0,'11111222,11111222,99999999' 
TABS,ioos:station:wmo:42050:1,2006-11-04T14:00:00Z,28.8425,-94.2433,2.0,268.7101074,23.99607676,-99999.0,'11111222,11111222,99999999' 
TABS,ioos:station:wmo:42050:1,2006-11-04T14:30:00Z,28.8425,-94.2433,2.0,279.4301173,26.00134804,-99999.0,'11111222,11111222,99999999' 
TABS,ioos:station:wmo:42050:1,2006-11-04T15:00:00Z,28.8425,-94.2433,2.0,288.6090929,22.93926764,-99999.0,'11111222,11111222,99999999' 
TABS,ioos:station:wmo:42050:1,2006-11-04T15:30:00Z,28.8425,-94.2433,2.0,292.97816,24.87356227,-99999.0,'11111222,11111222,99999999' 
TABS,ioos:station:wmo:42050:1,2006-11-04T16:00:00Z,28.8425,-94.2433,2.0,301.8175173,26.13756875,-99999.0,'11111222,11111222,99999999' 